Weather History for Iowa City, IA

Change the Weather History Date:

Wednesday, November 6, 2013

  Actual Average Record
Temperature  
Mean Temperature 43 °F 44 °F  
Max Temperature 58 °F 53 °F 73 °F (1980)
Min Temperature 27 °F 35 °F 14 °F (1951)
Degree Days  
Heating Degree Days 22 21  
Month to date heating degree days 117 120  
Since 1 July heating degree days 608 645  
Cooling Degree Days 0 0  
Month to date cooling degree days 0 0  
Year to date cooling degree days 1064 912  
Moisture  
Dew Point 37 °F    
Average Humidity 75    
Maximum Humidity 100    
Minimum Humidity 49    
Precipitation  
Precipitation 0.15 in 0.09 in 1.01 in (2000)
Month to date precipitation 0.50 0.59  
Year to date precipitation 33.90 33.00  
Sea Level Pressure  
Sea Level Pressure 30.03 in    
Wind  
Wind Speed 12 mph (WNW)    
Max Wind Speed 26 mph    
Max Gust Speed 32 mph    
Visibility 10 miles    
Events Rain    
T = Trace of Precipitation, MM = Missing Value Source: NWS Daily Summary

Daily Weather History Graph

Daily Weather History Graph

Search for Another Location

Airport:

Trip Planner

Search our weather history database for the weather conditions in past years. The results will help you decide how hot, cold, wet, or windy it might be!

Date:

Astronomy

Nov. 06, 2013 Rise Set
Actual Time 6:44 AM CST 4:54 PM CST
Civil Twilight 6:15 AM CST 5:23 PM CST
Nautical Twilight 5:42 AM CST 5:56 PM CST
Astronomical Twilight 5:09 AM CST 6:29 PM CST
Moon 10:00 AM CST (11/6) 7:58 PM CST (11/6)
Length of Visible Light 11h 08m
Length of Day
10h 10m
Waxing Crescent, 14% of the Moon is Illuminated
Nov 6
Waxing Crescent
Nov 9
First Quarter
Nov 17
Full
Nov 25
Last Quarter
Dec 2
New

Hourly Weather History & Observations

Time (CST) Temp. Windchill Dew Point Humidity Pressure Visibility Wind Dir Wind Speed Gust Speed Precip Events Conditions
12:52 AM 57.0 °F - 55.9 °F 96% 29.82 in 10.0 mi South 11.5 mph - 0.00 in   Overcast
1:52 AM 57.0 °F - 57.0 °F 100% 29.81 in 10.0 mi SSW 10.4 mph - 0.01 in Rain Light Rain
2:52 AM 57.9 °F - 57.0 °F 97% 29.79 in 10.0 mi South 12.7 mph - 0.04 in   Overcast
3:43 AM 50.0 °F - 50.0 °F 100% 29.80 in 10.0 mi NW 15.0 mph 29.9 mph 0.06 in Rain Light Rain
3:52 AM 46.9 °F - 46.9 °F 100% 29.80 in 10.0 mi NW 16.1 mph 23.0 mph 0.06 in Rain Light Rain
4:02 AM 46.4 °F 39.8 °F 46.4 °F 100% 29.80 in 10.0 mi NW 16.1 mph 21.9 mph 0.00 in Rain Light Rain
4:19 AM 44.6 °F 38.8 °F 44.6 °F 100% 29.82 in 10.0 mi NW 11.5 mph 27.6 mph 0.00 in Rain Light Rain
4:52 AM 43.0 °F 37.2 °F 43.0 °F 100% 29.85 in 10.0 mi NW 10.4 mph - 0.04 in Rain Light Rain
5:23 AM 42.8 °F 35.1 °F 42.8 °F 100% 29.85 in 10.0 mi WNW 16.1 mph 25.3 mph 0.00 in   Overcast
5:52 AM 41.0 °F 33.5 °F 41.0 °F 100% 29.88 in 10.0 mi NW 13.8 mph 24.2 mph 0.00 in   Overcast
6:52 AM 39.9 °F 32.5 °F 39.9 °F 100% 29.92 in 10.0 mi NW 12.7 mph 23.0 mph N/A   Overcast
7:52 AM 39.0 °F 30.3 °F 37.0 °F 93% 29.96 in 10.0 mi NW 16.1 mph 27.6 mph N/A   Overcast
8:52 AM 39.9 °F 30.2 °F 36.0 °F 86% 30.00 in 10.0 mi NW 20.7 mph 27.6 mph N/A   Overcast
9:44 AM 39.2 °F 31.2 °F 35.6 °F 87% 30.02 in 10.0 mi NW 13.8 mph 24.2 mph N/A   Overcast
9:52 AM 39.9 °F 31.4 °F 35.1 °F 83% 30.04 in 10.0 mi NW 16.1 mph 21.9 mph N/A   Overcast
10:52 AM 42.1 °F 34.2 °F 34.0 °F 73% 30.06 in 10.0 mi NNW 16.1 mph 21.9 mph N/A   Overcast
11:52 AM 44.1 °F 35.9 °F 34.0 °F 68% 30.07 in 10.0 mi NNW 19.6 mph 28.8 mph N/A   Overcast
12:32 PM 46.4 °F 39.0 °F 33.8 °F 62% 30.06 in 10.0 mi NW 19.6 mph 26.5 mph N/A   Mostly Cloudy
12:52 PM 46.9 °F - 34.0 °F 61% 30.07 in 10.0 mi NW 15.0 mph 24.2 mph N/A   Mostly Cloudy
1:52 PM 46.0 °F 38.3 °F 32.0 °F 58% 30.10 in 10.0 mi NW 20.7 mph 28.8 mph N/A   Scattered Clouds
2:52 PM 46.0 °F 38.5 °F 28.9 °F 51% 30.12 in 10.0 mi WNW 19.6 mph 26.5 mph N/A   Clear
3:52 PM 45.0 °F 38.5 °F 27.0 °F 49% 30.16 in 10.0 mi NW 13.8 mph 23.0 mph N/A   Clear
4:52 PM 43.0 °F 37.7 °F 26.1 °F 51% 30.19 in 10.0 mi NW 9.2 mph 18.4 mph N/A   Clear
5:52 PM 39.0 °F 34.8 °F 27.0 °F 62% 30.22 in 10.0 mi WNW 5.8 mph - N/A   Clear
6:52 PM 36.0 °F 31.1 °F 27.0 °F 70% 30.24 in 10.0 mi WNW 5.8 mph - N/A   Clear
7:52 PM 37.0 °F 31.6 °F 26.1 °F 65% 30.24 in 10.0 mi NW 6.9 mph - N/A   Clear
8:52 PM 33.1 °F 30.0 °F 26.1 °F 75% 30.26 in 10.0 mi West 3.5 mph - N/A   Clear
9:52 PM 30.0 °F 26.5 °F 25.0 °F 82% 30.28 in 10.0 mi West 3.5 mph - N/A   Clear
10:52 PM 28.0 °F 24.2 °F 24.1 °F 85% 30.29 in 10.0 mi West 3.5 mph - N/A   Clear
11:52 PM 28.0 °F 22.8 °F 24.1 °F 85% 30.29 in 10.0 mi West 4.6 mph - N/A   Clear